THOR ABLESTAR DEB, 1099

Orbit data source: Space-Track

THOR ABLESTAR DEB, 1099 is space debris in LEO originally from a launch on Sun, 13 Dec 1964 UTC launched from the Air Force Western Test Range (AFWTR). Debris objects in space refer to the collection of defunct objects orbiting the Earth. Examples of debris include non-operational satellites, rocket bodies, and fragments generated from explosions, collisions, or faulty payload assembly.

Loading next visibility...
Identifier
1099, 1964-083G
Orbit
LEO
Last TLE update
12 hours ago
Origin
Manufacturer
Unknown
Mission
Spacecraft
Bus & Motor
Unknown
Mass
Unknown
Launch date (UTC)
1964-12-13 (61 years ago)
Launch vehicle
Unknown
Launch site
Air Force Western Test Range (AFWTR)
Object type
Payload
Rocket body
Debris
Shape & HBR
Unknown
Radar Cross Section
0.550 m², Medium (>0.1 m² and < 1m²)

Expand to show TLE details & history

TLE from 12 hours ago
0 THOR ABLESTAR DEB
1  1099U 64083G   25181.88274594  .00000147  00000-0  17579-3 0  9998
2  1099  89.8297 144.5059 0037290 239.8079 173.4085 13.62697053935031
Epoch: 2025-06-30T21:11Z
TLE epoch observation values (Epoch: 2025-06-30T21:11:09.249Z)
Latitude
53.35929°
Longitude
-92.24102°
Altitude
1,062.15 km
Speed
7.312 km/s
True Right ascension
09h 38m 56s
True Declination
53° 12' 04"
Sunlit
Object was in daylight at epoch
Visualization orbit readout
Latitude
46.5699°
Longitude
-92.29883°
Altitude
1,060.167 km
Speed
7.313 km/s
Apparent Right ascension
09h 23m 29s
Apparent Declination
7° 27' 17"
Sunlit
Object is in daylight
Visualization observer readout
Local Sidereal Time
21:07:35
Azimuth
354.652° N
Elevation
-42.487°
Doppler factor
1
Orbital elements
Apogee altitude
1,050.536 km
Perigee altitude
995.339 km
Semi-major axis
7,401.075 km
Eccentricity
0.00373
Inclination
89.8297°
RAAN
144.5059°
Arg. of periapsis
239.8079°
True anomaly
Unknown
Mean anomaly
173.4085°
Eccentric anomaly
Unknown
Mean motion
3.4088 °/min
Orbital period
105.61 mins
BSTAR
0.00017579
Loading maneuver chart data...
Loading SW <> Apogee altitude chart data...

THOR ABLESTAR DEB Visibility forecast

Observer location: undefined°, undefined°

Span
Click to sort rows by Start time (UTC) header in descending order
Start Az.
Max El. time (UTC)
Max El. Az.
Max El.
End time (UTC)
End Az.
12 mins2025-07-01 09:51:18.291Z2.809° NNE2025-07-01 09:57:18.291Z164.168° S44.643°2025-07-01 10:03:18.291Z182.526° SSW
4 mins2025-07-01 11:40:18.291Z302.392° NW2025-07-01 11:41:18.291Z292.356° WNW13.453°2025-07-01 11:44:18.291Z263.604° W
11 mins2025-07-01 21:42:18.291Z168.201° S2025-07-01 21:47:18.291Z108.424° ESE43.954°2025-07-01 21:53:18.291Z2.075° NNE
6 mins2025-07-01 23:31:18.291Z257.906° W2025-07-01 23:33:18.291Z278.207° WNW15.705°2025-07-01 23:37:18.291Z317.514° NNW
9 mins2025-07-02 08:47:18.291Z32.758° NE2025-07-02 08:51:18.291Z81.374° E25.769°2025-07-02 08:56:18.291Z138.139° SSE
|